Location: Mascot Post Office (historical)
(40.2645°N, 99.5462°W)
Time: 23:00:30
(UTC+00:00)

NOSS 3-4 (C) - Pass Details

Date: 23 October 2020
Orbit: 884 x 1328 km, 63.4° (Epoch: 28 November)

Event Time Altitude Azimuth Distance (km) Brightness Sun altitude
Rises 02:36:11 0° 330° (NNW) 3,796 7.1 -32.7°
Reaches altitude 10° 02:39:05 10° 341° (NNW) 2,909 6.3 -33.3°
Enters shadow 02:42:47 26° 10° (N) 2,066 5.2 -34.0°
